START_TIME,STEP,MOV.,H8,t_acc.,H43,t_acc.,M25,t_acc.,H9,t_acc.
1979-08-03 15:00:28.230 ,1,0,0.,12.0,0.,12.0,0.,12.0,0.,12.0
1979-08-03 15:00:40.230 ,1,0,0.,12.0,0.,12.0,0.,12.0,0.,12.0
1979-08-03 15:00:52.230 ,2,0,0.,12.0,0.,12.0,0.,12.0,0.,12.0
1979-08-03 15:01:04.230 ,2,0,0.,12.0,0.,12.0,0.,12.0,0.,12.0
1979-08-03 15:01:16.230 ,2,0,0.,12.0,0.,12.0,0.,12.0,0.,12.0
1979-08-03 15:01:28.230 ,2,0,0.,12.0,0.,12.0,0.,12.0,0.,12.0
1979-08-03 15:01:40.230 ,3,0,0.,12.0,0.,12.0,0.,12.0,0.,12.0
1979-08-03 15:01:52.230 ,3,0,0.,12.0,0.,12.0,0.,12.0,0.,12.0
1979-08-03 15:02:04.230 ,3,0,0.,12.0,0.,12.0,0.,12.0,0.,12.0
1979-08-03 15:02:16.230 ,3,0,0.,12.0,0.,12.0,0.,12.0,0.,12.0
1979-08-03 15:02:28.230 ,4,0,0.,12.0,0.,12.0,0.,12.0,0.,12.0
1979-08-03 15:02:40.230 ,4,0,0.,12.0,0.,12.0,0.,12.0,0.,12.0
1979-08-03 15:02:52.230 ,4,0,0.,12.0,0.,12.0,0.,12.0,0.,12.0
1979-08-03 15:03:04.230 ,4,0,0.,12.0,0.,12.0,0.,12.0,0.,12.0
1979-08-03 15:03:16.230 ,5,0,0.,12.0,0.,12.0,0.,12.0,0.,12.0
1979-08-03 15:03:28.230 ,5,0,0.,12.0,0.,12.0,0.,12.0,0.,12.0
1979-08-03 15:03:40.230 ,5,0,1.,12.0,0.,12.0,0.,12.0,0.,12.0
1979-08-03 15:03:52.230 ,5,0,0.,12.0,0.,12.0,0.,12.0,0.,12.0
1979-08-03 15:04:04.230 ,6,0,0.,12.0,0.,12.0,0.,12.0,0.,12.0
1979-08-03 15:04:16.230 ,6,0,0.,12.0,0.,12.0,0.,12.0,0.,12.0
1979-08-03 15:04:28.230 ,6,0,0.,12.0,0.,12.0,0.,12.0,0.,12.0
1979-08-03 15:04:40.230 ,6,0,0.,12.0,0.,12.0,0.,12.0,0.,12.0
1979-08-03 15:04:52.230 ,7,0,0.,12.0,0.,12.0,0.,12.0,0.,12.0
1979-08-03 15:05:04.230 ,7,0,0.,12.0,0.,12.0,0.,12.0,0.,12.0
1979-08-03 15:05:16.230 ,7,0,0.,12.0,0.,12.0,0.,12.0,0.,12.0
1979-08-03 15:05:28.230 ,7,0,0.,12.0,0.,12.0,0.,12.0,0.,12.0
1979-08-03 15:05:40.230 ,7,0,0.,12.0,0.,12.0,0.,12.0,0.,12.0
1979-08-03 15:05:52.230 ,7,0,0.,12.0,0.,12.0,0.,12.0,0.,12.0
1979-08-03 15:06:04.230 ,7,0,0.,12.0,0.,12.0,0.,12.0,0.,12.0
1979-08-03 15:06:16.230 ,7,0,0.,12.0,0.,12.0,0.,12.0,0.,12.0
1979-08-03 15:06:28.230 ,6,0,0.,12.0,0.,12.0,0.,12.0,0.,12.0
1979-08-03 15:06:40.230 ,6,0,0.,12.0,0.,12.0,0.,12.0,0.,12.0
1979-08-03 15:06:52.230 ,6,0,0.,12.0,0.,12.0,0.,12.0,0.,12.0
1979-08-03 15:07:04.230 ,6,0,0.,12.0,0.,12.0,0.,12.0,0.,12.0
1979-08-03 15:07:16.230 ,5,0,0.,12.0,0.,12.0,0.,12.0,0.,12.0
1979-08-03 15:07:28.230 ,5,0,0.,12.0,0.,12.0,0.,12.0,0.,12.0
1979-08-03 15:07:40.230 ,5,0,0.,12.0,0.,12.0,0.,12.0,0.,12.0
1979-08-03 15:07:52.230 ,5,0,0.,12.0,0.,12.0,0.,12.0,0.,12.0
1979-08-03 15:08:04.230 ,4,0,0.,12.0,0.,12.0,0.,12.0,0.,12.0
1979-08-03 15:08:16.230 ,4,0,0.,12.0,0.,12.0,0.,12.0,0.,12.0
1979-08-03 15:08:28.230 ,4,0,0.,12.0,0.,12.0,0.,12.0,0.,12.0
1979-08-03 15:08:40.230 ,4,0,0.,12.0,0.,12.0,0.,12.0,0.,12.0
1979-08-03 15:08:52.230 ,3,0,0.,12.0,0.,12.0,0.,12.0,0.,12.0
1979-08-03 15:09:04.230 ,3,0,0.,12.0,0.,12.0,0.,12.0,0.,12.0
1979-08-03 15:09:16.230 ,3,0,0.,12.0,0.,12.0,0.,12.0,0.,12.0
1979-08-03 15:09:28.230 ,3,0,0.,12.0,0.,12.0,0.,12.0,0.,12.0
1979-08-03 15:09:40.230 ,2,0,0.,12.0,0.,12.0,0.,12.0,0.,12.0
1979-08-03 15:09:52.230 ,2,0,0.,12.0,0.,12.0,0.,12.0,0.,12.0
1979-08-03 15:10:04.230 ,2,0,0.,12.0,0.,12.0,0.,12.0,0.,12.0
1979-08-03 15:10:16.230 ,2,0,0.,12.0,0.,12.0,0.,12.0,0.,12.0
1979-08-03 15:10:28.230 ,1,0,0.,12.0,0.,12.0,0.,12.0,0.,12.0
1979-08-03 15:10:40.230 ,1,0,0.,12.0,0.,12.0,0.,12.0,0.,12.0
1979-08-03 15:10:52.230 ,1,0,0.,12.0,0.,12.0,0.,12.0,0.,12.0
1979-08-03 15:11:04.230 ,1,0,0.,12.0,0.,12.0,0.,12.0,0.,12.0
1979-08-03 15:11:16.230 ,0,0,0.,12.0,0.,12.0,0.,12.0,0.,12.0
1979-08-03 15:11:28.230 ,0,0,0.,12.0,0.,12.0,0.,12.0,0.,12.0
1979-08-03 15:11:40.230 ,0,0,0.,12.0,0.,12.0,0.,12.0,0.,12.0
1979-08-03 15:11:52.230 ,0,0,0.,12.0,0.,12.0,0.,12.0,0.,12.0
1979-08-03 15:12:04.230 ,0,0,0.,12.0,0.,12.0,0.,12.0,0.,12.0
1979-08-03 15:12:16.230 ,0,0,0.,12.0,0.,12.0,0.,12.0,0.,12.0
1979-08-03 15:12:28.230 ,0,0,0.,12.0,0.,12.0,0.,12.0,0.,12.0
1979-08-03 15:12:40.230 ,0,0,0.,12.0,0.,12.0,0.,12.0,0.,12.0
1979-08-03 15:12:52.230 ,1,0,0.,12.0,0.,12.0,0.,12.0,0.,12.0
1979-08-03 15:13:04.230 ,1,0,0.,12.0,0.,12.0,0.,12.0,0.,12.0
1979-08-03 15:13:16.230 ,1,0,0.,12.0,0.,12.0,0.,12.0,0.,12.0
1979-08-03 15:13:28.230 ,1,0,0.,12.0,0.,12.0,0.,12.0,0.,12.0
1979-08-03 15:13:40.230 ,2,0,0.,12.0,0.,12.0,0.,12.0,0.,12.0
1979-08-03 15:13:52.230 ,2,0,0.,12.0,0.,12.0,0.,12.0,0.,12.0
1979-08-03 15:14:04.230 ,2,0,0.,12.0,0.,12.0,0.,12.0,0.,12.0
1979-08-03 15:14:16.230 ,2,0,0.,12.0,0.,12.0,0.,12.0,0.,12.0
1979-08-03 15:14:28.230 ,3,0,0.,12.0,0.,12.0,0.,12.0,0.,12.0
1979-08-03 15:14:40.230 ,3,0,0.,12.0,0.,12.0,0.,12.0,0.,12.0
1979-08-03 15:14:52.230 ,3,0,0.,12.0,0.,12.0,0.,12.0,0.,12.0
1979-08-03 15:15:04.230 ,3,0,0.,12.0,0.,12.0,0.,12.0,0.,12.0
1979-08-03 15:15:16.230 ,4,0,0.,12.0,0.,12.0,0.,12.0,0.,12.0
1979-08-03 15:15:28.230 ,4,0,0.,12.0,0.,12.0,0.,12.0,0.,12.0
1979-08-03 15:15:40.230 ,4,0,0.,12.0,0.,12.0,0.,12.0,0.,12.0
1979-08-03 15:15:52.230 ,4,0,0.,12.0,0.,12.0,0.,12.0,0.,12.0
1979-08-03 15:16:04.230 ,5,0,0.,12.0,0.,12.0,0.,12.0,0.,12.0
1979-08-03 15:16:16.230 ,5,0,0.,12.0,0.,12.0,0.,12.0,0.,12.0
1979-08-03 15:16:28.230 ,5,0,0.,12.0,0.,12.0,0.,12.0,0.,12.0
1979-08-03 15:16:40.230 ,5,0,0.,12.0,0.,12.0,0.,12.0,0.,12.0
1979-08-03 15:16:52.230 ,6,0,0.,12.0,0.,12.0,0.,12.0,0.,12.0
1979-08-03 15:17:04.230 ,6,0,0.,12.0,0.,12.0,0.,12.0,0.,12.0
1979-08-03 15:17:16.230 ,6,0,0.,12.0,0.,12.0,0.,12.0,0.,12.0
1979-08-03 15:17:28.230 ,6,0,0.,12.0,0.,12.0,0.,12.0,0.,12.0
1979-08-03 15:17:40.230 ,7,0,0.,12.0,0.,12.0,0.,12.0,0.,12.0
1979-08-03 15:17:52.230 ,7,0,0.,12.0,0.,12.0,0.,12.0,0.,12.0
1979-08-03 15:18:04.230 ,7,0,0.,12.0,0.,12.0,0.,12.0,0.,12.0
1979-08-03 15:18:16.230 ,7,0,0.,12.0,0.,12.0,0.,12.0,0.,12.0
1979-08-03 15:18:28.230 ,7,0,0.,12.0,0.,12.0,0.,12.0,0.,12.0
1979-08-03 15:18:40.230 ,7,0,0.,12.0,0.,12.0,0.,12.0,0.,12.0
1979-08-03 15:18:52.230 ,7,0,0.,12.0,0.,12.0,0.,12.0,0.,12.0
1979-08-03 15:19:04.230 ,7,0,0.,12.0,0.,12.0,0.,12.0,0.,12.0
1979-08-03 15:19:16.230 ,6,0,0.,12.0,0.,12.0,0.,12.0,0.,12.0
1979-08-03 15:19:28.230 ,6,0,0.,12.0,0.,12.0,0.,12.0,0.,12.0
1979-08-03 15:19:40.230 ,6,0,0.,12.0,0.,12.0,0.,12.0,0.,12.0
1979-08-03 15:19:52.230 ,6,0,0.,12.0,0.,12.0,0.,12.0,0.,12.0
1979-08-03 15:20:04.230 ,5,0,0.,12.0,0.,12.0,0.,12.0,0.,12.0
1979-08-03 15:20:16.230 ,5,0,0.,12.0,0.,12.0,0.,12.0,0.,12.0
1979-08-03 15:20:28.230 ,5,0,0.,12.0,0.,12.0,0.,12.0,0.,12.0
1979-08-03 15:20:40.230 ,5,0,0.,12.0,0.,12.0,0.,12.0,0.,12.0
1979-08-03 15:20:52.230 ,4,0,0.,12.0,0.,12.0,0.,12.0,0.,12.0
1979-08-03 15:21:04.230 ,4,0,0.,12.0,0.,12.0,0.,12.0,0.,12.0
1979-08-03 15:21:16.230 ,4,0,0.,12.0,0.,12.0,0.,12.0,0.,12.0
1979-08-03 15:21:28.230 ,4,0,0.,12.0,0.,12.0,0.,12.0,0.,12.0
1979-08-03 15:21:40.230 ,3,0,0.,12.0,0.,12.0,0.,12.0,0.,12.0
1979-08-03 15:21:52.230 ,3,0,0.,12.0,0.,12.0,0.,12.0,0.,12.0
1979-08-03 15:22:04.230 ,3,0,0.,12.0,0.,12.0,0.,12.0,0.,12.0
1979-08-03 15:22:16.230 ,3,0,0.,12.0,0.,12.0,0.,12.0,0.,12.0
1979-08-03 15:22:28.230 ,2,0,0.,12.0,0.,12.0,0.,12.0,0.,12.0
1979-08-03 15:22:40.230 ,2,0,0.,12.0,0.,12.0,0.,12.0,0.,12.0
1979-08-03 15:22:52.230 ,2,0,0.,12.0,0.,12.0,0.,12.0,0.,12.0
1979-08-03 15:23:04.230 ,2,0,0.,12.0,0.,12.0,0.,12.0,0.,12.0
1979-08-03 15:23:16.230 ,1,0,0.,12.0,0.,12.0,0.,12.0,0.,12.0
1979-08-03 15:23:28.230 ,1,0,0.,12.0,0.,12.0,0.,12.0,0.,12.0
1979-08-03 15:23:40.230 ,1,0,0.,12.0,0.,12.0,0.,12.0,0.,12.0
1979-08-03 15:23:52.230 ,1,0,1.,12.0,0.,12.0,0.,12.0,0.,12.0
1979-08-03 15:24:04.230 ,0,0,0.,12.0,0.,12.0,0.,12.0,0.,12.0
1979-08-03 15:24:16.230 ,0,0,0.,12.0,0.,12.0,0.,12.0,0.,12.0
1979-08-03 15:24:28.230 ,0,0,0.,12.0,0.,12.0,0.,12.0,0.,12.0
1979-08-03 15:24:40.230 ,0,0,0.,12.0,0.,12.0,0.,12.0,0.,12.0
1979-08-03 15:24:52.230 ,0,0,0.,12.0,0.,12.0,0.,12.0,0.,12.0
1979-08-03 15:25:04.230 ,0,0,0.,12.0,0.,12.0,0.,12.0,0.,12.0
1979-08-03 15:25:16.230 ,0,0,0.,12.0,0.,12.0,0.,12.0,0.,12.0
1979-08-03 15:25:28.230 ,0,0,0.,12.0,0.,12.0,0.,12.0,0.,12.0
1979-08-03 15:25:40.230 ,1,0,0.,12.0,0.,12.0,0.,12.0,0.,12.0
1979-08-03 15:25:52.230 ,1,0,0.,12.0,0.,12.0,0.,12.0,0.,12.0
1979-08-03 15:26:04.230 ,1,0,0.,12.0,0.,12.0,0.,12.0,0.,12.0
1979-08-03 15:26:16.230 ,1,0,0.,12.0,0.,12.0,0.,12.0,0.,12.0
1979-08-03 15:26:28.230 ,2,0,0.,12.0,0.,12.0,0.,12.0,0.,12.0
1979-08-03 15:26:40.230 ,2,0,0.,12.0,0.,12.0,0.,12.0,0.,12.0
1979-08-03 15:26:52.230 ,2,0,0.,12.0,0.,12.0,0.,12.0,0.,12.0
1979-08-03 15:27:04.230 ,2,0,0.,12.0,0.,12.0,0.,12.0,0.,12.0
1979-08-03 15:27:16.230 ,3,0,0.,12.0,0.,12.0,0.,12.0,0.,12.0
1979-08-03 15:27:28.230 ,3,0,0.,12.0,0.,12.0,0.,12.0,0.,12.0
1979-08-03 15:27:40.230 ,3,0,0.,12.0,0.,12.0,0.,12.0,0.,12.0
1979-08-03 15:27:52.230 ,3,0,0.,12.0,0.,12.0,0.,12.0,0.,12.0
1979-08-03 15:28:04.230 ,4,0,0.,12.0,0.,12.0,0.,12.0,0.,12.0
1979-08-03 15:28:16.230 ,4,0,0.,12.0,0.,12.0,0.,12.0,0.,12.0
1979-08-03 15:28:28.230 ,4,0,0.,12.0,0.,12.0,0.,12.0,0.,12.0
1979-08-03 15:28:40.230 ,4,0,0.,12.0,0.,12.0,0.,12.0,0.,12.0
1979-08-03 15:28:52.230 ,5,0,0.,12.0,0.,12.0,0.,12.0,0.,12.0
1979-08-03 15:29:04.230 ,5,0,0.,12.0,0.,12.0,0.,12.0,0.,12.0
1979-08-03 15:29:16.230 ,5,0,0.,12.0,0.,12.0,0.,12.0,0.,12.0
1979-08-03 15:29:28.230 ,5,0,0.,12.0,0.,12.0,0.,12.0,0.,12.0
1979-08-03 15:29:40.230 ,6,0,0.,12.0,0.,12.0,0.,12.0,0.,12.0
1979-08-03 15:29:52.230 ,6,0,0.,12.0,0.,12.0,0.,12.0,0.,12.0
1979-08-03 15:30:04.230 ,6,0,0.,12.0,0.,12.0,0.,12.0,0.,12.0
1979-08-03 15:30:16.230 ,6,0,0.,12.0,0.,12.0,0.,12.0,0.,12.0
1979-08-03 15:30:28.230 ,7,0,0.,12.0,0.,12.0,0.,12.0,0.,12.0
1979-08-03 15:30:40.230 ,7,0,0.,12.0,0.,12.0,0.,12.0,0.,12.0
1979-08-03 15:30:52.230 ,7,0,0.,12.0,0.,12.0,0.,12.0,0.,12.0
1979-08-03 15:31:04.230 ,7,0,0.,12.0,0.,12.0,0.,12.0,0.,12.0
1979-08-03 15:31:16.230 ,3,1,0.,12.0,0.,12.0,0.,12.0,0.,12.0
1979-08-03 15:31:28.230 ,3,1,0.,12.0,0.,12.0,0.,12.0,0.,12.0
1979-08-03 15:31:40.230 ,0,1,0.,12.0,0.,12.0,0.,12.0,0.,12.0
1979-08-03 15:31:52.230 ,0,1,0.,12.0,0.,12.0,0.,12.0,0.,12.0
1979-08-03 15:32:04.230 ,4,1,0.,12.0,0.,12.0,0.,12.0,0.,12.0
1979-08-03 15:32:16.230 ,4,1,0.,12.0,0.,12.0,0.,12.0,0.,12.0
1979-08-03 15:32:28.230 ,7,1,0.,12.0,0.,12.0,0.,12.0,0.,12.0
1979-08-03 15:32:40.230 ,7,1,0.,12.0,0.,12.0,0.,12.0,0.,12.0
1979-08-03 15:32:52.230 ,3,1,0.,12.0,0.,12.0,0.,12.0,0.,12.0
1979-08-03 15:33:04.230 ,3,1,0.,12.0,0.,12.0,0.,12.0,0.,12.0
1979-08-03 15:33:16.230 ,0,1,0.,12.0,0.,12.0,0.,12.0,0.,12.0
1979-08-03 15:33:28.230 ,0,1,0.,12.0,0.,12.0,0.,12.0,0.,12.0
1979-08-03 15:47:20.430 ,0,0,0.,12.0,0.,12.0,0.,12.0,0.,12.0
1979-08-03 15:47:32.430 ,0,0,0.,12.0,0.,12.0,0.,12.0,0.,12.0
1979-08-03 15:47:40.230 ,0,0,0.,12.0,0.,12.0,0.,12.0,0.,12.0
1979-08-03 15:47:52.230 ,0,0,0.,12.0,0.,12.0,0.,12.0,0.,12.0
1979-08-03 15:48:04.230 ,1,0,0.,12.0,0.,12.0,0.,12.0,0.,12.0
1979-08-03 15:48:16.230 ,1,0,0.,12.0,0.,12.0,0.,12.0,0.,12.0
1979-08-03 15:48:28.230 ,1,0,0.,12.0,0.,12.0,0.,12.0,0.,12.0
1979-08-03 15:48:40.230 ,1,0,0.,12.0,0.,12.0,0.,12.0,0.,12.0
1979-08-03 15:48:52.230 ,2,0,0.,12.0,0.,12.0,0.,12.0,0.,12.0
1979-08-03 15:49:04.230 ,2,0,0.,12.0,0.,12.0,0.,12.0,0.,12.0
1979-08-03 15:49:16.230 ,2,0,0.,12.0,0.,12.0,0.,12.0,0.,12.0
1979-08-03 15:49:28.230 ,2,0,0.,12.0,0.,12.0,0.,12.0,0.,12.0
1979-08-03 15:49:40.230 ,3,0,0.,12.0,0.,12.0,0.,12.0,0.,12.0
1979-08-03 15:49:52.230 ,3,0,0.,12.0,0.,12.0,0.,12.0,0.,12.0
1979-08-03 15:50:04.230 ,3,0,0.,12.0,0.,12.0,0.,12.0,0.,12.0
1979-08-03 15:50:16.230 ,3,0,0.,12.0,0.,12.0,0.,12.0,0.,12.0
1979-08-03 15:50:28.230 ,4,0,0.,12.0,0.,12.0,0.,12.0,0.,12.0
1979-08-03 15:50:40.230 ,4,0,0.,12.0,0.,12.0,0.,12.0,0.,12.0
1979-08-03 15:50:52.230 ,4,0,0.,12.0,0.,12.0,0.,12.0,0.,12.0
1979-08-03 15:51:04.230 ,4,0,0.,12.0,0.,12.0,0.,12.0,0.,12.0
1979-08-03 15:51:16.230 ,5,0,0.,12.0,0.,12.0,0.,12.0,0.,12.0
1979-08-03 15:51:28.230 ,5,0,0.,12.0,0.,12.0,0.,12.0,0.,12.0
1979-08-03 15:51:40.230 ,5,0,0.,12.0,0.,12.0,0.,12.0,0.,12.0
1979-08-03 15:51:52.230 ,5,0,0.,12.0,0.,12.0,0.,12.0,0.,12.0
1979-08-03 15:52:04.230 ,6,0,0.,12.0,0.,12.0,0.,12.0,0.,12.0
1979-08-03 15:52:16.230 ,6,0,0.,12.0,0.,12.0,0.,12.0,0.,12.0
1979-08-03 15:52:28.230 ,6,0,0.,12.0,0.,12.0,0.,12.0,0.,12.0
1979-08-03 15:52:40.230 ,6,0,0.,12.0,0.,12.0,0.,12.0,0.,12.0
1979-08-03 15:52:52.230 ,7,0,0.,12.0,0.,12.0,0.,12.0,0.,12.0
1979-08-03 15:53:04.230 ,7,0,0.,12.0,0.,12.0,0.,12.0,0.,12.0
1979-08-03 15:53:16.230 ,7,0,0.,12.0,0.,12.0,0.,12.0,0.,12.0
1979-08-03 15:53:28.230 ,7,0,0.,12.0,0.,12.0,0.,12.0,0.,12.0
1979-08-03 15:53:40.230 ,7,0,0.,12.0,0.,12.0,0.,12.0,0.,12.0
1979-08-03 15:53:52.230 ,7,0,0.,12.0,0.,12.0,0.,12.0,0.,12.0
1979-08-03 15:54:04.230 ,7,0,0.,12.0,0.,12.0,0.,12.0,0.,12.0
1979-08-03 15:54:16.230 ,7,0,0.,12.0,0.,12.0,0.,12.0,0.,12.0
1979-08-03 15:54:28.230 ,6,0,0.,12.0,0.,12.0,0.,12.0,0.,12.0
1979-08-03 15:54:40.230 ,6,0,0.,12.0,0.,12.0,0.,12.0,0.,12.0
1979-08-03 15:54:52.230 ,6,0,0.,12.0,0.,12.0,0.,12.0,0.,12.0
1979-08-03 15:55:04.230 ,6,0,0.,12.0,0.,12.0,0.,12.0,0.,12.0
1979-08-03 15:55:16.230 ,5,0,0.,12.0,0.,12.0,0.,12.0,0.,12.0
1979-08-03 15:55:28.230 ,5,0,0.,12.0,0.,12.0,0.,12.0,0.,12.0
1979-08-03 15:55:40.230 ,5,0,0.,12.0,0.,12.0,0.,12.0,0.,12.0
1979-08-03 15:55:52.230 ,5,0,0.,12.0,0.,12.0,0.,12.0,0.,12.0
1979-08-03 15:56:04.230 ,4,0,0.,12.0,0.,12.0,0.,12.0,0.,12.0
1979-08-03 15:56:16.230 ,4,0,0.,12.0,0.,12.0,0.,12.0,0.,12.0
1979-08-03 15:56:28.230 ,4,0,0.,12.0,0.,12.0,0.,12.0,0.,12.0
1979-08-03 15:56:40.230 ,4,0,0.,12.0,0.,12.0,0.,12.0,0.,12.0
1979-08-03 15:56:52.230 ,3,0,0.,12.0,0.,12.0,0.,12.0,0.,12.0
1979-08-03 15:57:04.230 ,3,0,0.,12.0,0.,12.0,0.,12.0,0.,12.0
1979-08-03 15:57:16.230 ,3,0,0.,12.0,0.,12.0,0.,12.0,0.,12.0
1979-08-03 15:57:28.230 ,3,0,0.,12.0,0.,12.0,0.,12.0,0.,12.0
1979-08-03 15:57:40.230 ,2,0,0.,12.0,0.,12.0,0.,12.0,0.,12.0
1979-08-03 15:57:52.230 ,2,0,0.,12.0,0.,12.0,0.,12.0,0.,12.0
1979-08-03 15:58:04.230 ,2,0,0.,12.0,0.,12.0,0.,12.0,0.,12.0
1979-08-03 15:58:16.230 ,2,0,0.,12.0,0.,12.0,0.,12.0,0.,12.0
1979-08-03 15:58:28.230 ,1,0,0.,12.0,0.,12.0,0.,12.0,0.,12.0
1979-08-03 15:58:40.230 ,1,0,0.,12.0,0.,12.0,0.,12.0,0.,12.0
1979-08-03 15:58:52.230 ,1,0,0.,12.0,0.,12.0,0.,12.0,0.,12.0
1979-08-03 15:59:04.230 ,1,0,0.,12.0,0.,12.0,0.,12.0,0.,12.0
1979-08-03 15:59:16.230 ,0,0,0.,12.0,0.,12.0,0.,12.0,0.,12.0
1979-08-03 15:59:28.230 ,0,0,0.,12.0,0.,12.0,0.,12.0,0.,12.0
1979-08-03 15:59:40.230 ,0,0,0.,12.0,0.,12.0,0.,12.0,0.,12.0
1979-08-03 15:59:52.230 ,0,0,0.,12.0,0.,12.0,0.,12.0,0.,12.0
1979-08-03 16:00:04.230 ,0,0,0.,12.0,0.,12.0,0.,12.0,0.,12.0
1979-08-03 16:00:16.230 ,0,0,0.,12.0,0.,12.0,0.,12.0,0.,12.0
1979-08-03 16:00:28.230 ,0,0,0.,12.0,0.,12.0,0.,12.0,0.,12.0
1979-08-03 16:00:40.230 ,0,0,0.,12.0,0.,12.0,0.,12.0,0.,12.0
1979-08-03 16:00:52.230 ,1,0,0.,12.0,0.,12.0,0.,12.0,0.,12.0
1979-08-03 16:01:04.230 ,1,0,0.,12.0,0.,12.0,0.,12.0,0.,12.0
1979-08-03 16:01:16.230 ,1,0,0.,12.0,0.,12.0,0.,12.0,0.,12.0
1979-08-03 16:01:28.230 ,1,0,0.,12.0,0.,12.0,0.,12.0,0.,12.0
1979-08-03 16:01:40.230 ,2,0,0.,12.0,0.,12.0,0.,12.0,0.,12.0
1979-08-03 16:01:52.230 ,2,0,0.,12.0,0.,12.0,0.,12.0,0.,12.0
1979-08-03 16:02:04.230 ,2,0,0.,12.0,0.,12.0,0.,12.0,0.,12.0
1979-08-03 16:02:16.230 ,2,0,0.,12.0,0.,12.0,0.,12.0,0.,12.0
1979-08-03 16:02:28.230 ,3,0,0.,12.0,0.,12.0,0.,12.0,0.,12.0
1979-08-03 16:02:40.230 ,3,0,0.,12.0,0.,12.0,0.,12.0,0.,12.0
1979-08-03 16:02:52.230 ,3,0,0.,12.0,0.,12.0,0.,12.0,0.,12.0
1979-08-03 16:03:04.230 ,3,0,0.,12.0,0.,12.0,0.,12.0,0.,12.0
1979-08-03 16:03:16.230 ,4,0,0.,12.0,0.,12.0,0.,12.0,0.,12.0
1979-08-03 16:03:28.230 ,4,0,0.,12.0,0.,12.0,0.,12.0,0.,12.0
1979-08-03 16:03:40.230 ,4,0,0.,12.0,0.,12.0,0.,12.0,0.,12.0
1979-08-03 16:03:52.230 ,4,0,0.,12.0,0.,12.0,0.,12.0,0.,12.0
1979-08-03 16:04:04.230 ,5,0,0.,12.0,0.,12.0,0.,12.0,0.,12.0
1979-08-03 16:04:16.230 ,5,0,0.,12.0,0.,12.0,0.,12.0,0.,12.0
1979-08-03 16:04:28.230 ,5,0,0.,12.0,0.,12.0,0.,12.0,0.,12.0
1979-08-03 16:04:40.230 ,5,0,0.,12.0,0.,12.0,0.,12.0,0.,12.0
1979-08-03 16:04:52.230 ,6,0,0.,12.0,0.,12.0,0.,12.0,0.,12.0
1979-08-03 16:05:04.230 ,6,0,0.,12.0,0.,12.0,0.,12.0,0.,12.0
1979-08-03 16:05:16.230 ,6,0,0.,12.0,0.,12.0,0.,12.0,0.,12.0
1979-08-03 16:05:28.230 ,6,0,0.,12.0,0.,12.0,0.,12.0,0.,12.0
1979-08-03 16:05:40.230 ,7,0,0.,12.0,0.,12.0,0.,12.0,0.,12.0
1979-08-03 16:05:52.230 ,7,0,0.,12.0,0.,12.0,0.,12.0,0.,12.0
1979-08-03 16:06:04.230 ,7,0,0.,12.0,0.,12.0,0.,12.0,0.,12.0
1979-08-03 16:06:16.230 ,7,0,0.,12.0,0.,12.0,0.,12.0,0.,12.0
1979-08-03 16:06:28.230 ,7,0,0.,12.0,0.,12.0,0.,12.0,0.,12.0
1979-08-03 16:06:40.230 ,7,0,0.,12.0,0.,12.0,0.,12.0,0.,12.0
1979-08-03 16:06:52.230 ,7,0,0.,12.0,0.,12.0,0.,12.0,0.,12.0
1979-08-03 16:07:04.230 ,7,0,0.,12.0,0.,12.0,0.,12.0,0.,12.0
1979-08-03 16:07:16.230 ,6,0,0.,12.0,0.,12.0,0.,12.0,0.,12.0
1979-08-03 16:07:28.230 ,6,0,0.,12.0,0.,12.0,0.,12.0,0.,12.0
1979-08-03 16:07:40.230 ,6,0,0.,12.0,0.,12.0,0.,12.0,0.,12.0
1979-08-03 16:07:52.230 ,6,0,0.,12.0,0.,12.0,0.,12.0,0.,12.0
1979-08-03 16:08:04.230 ,5,0,0.,12.0,0.,12.0,0.,12.0,0.,12.0
1979-08-03 16:08:16.230 ,5,0,0.,12.0,0.,12.0,0.,12.0,0.,12.0
1979-08-03 16:08:28.230 ,5,0,0.,12.0,0.,12.0,0.,12.0,0.,12.0
1979-08-03 16:08:40.230 ,5,0,0.,12.0,0.,12.0,0.,12.0,0.,12.0
1979-08-03 16:08:52.230 ,4,0,0.,12.0,0.,12.0,0.,12.0,0.,12.0
1979-08-03 16:09:04.230 ,4,0,0.,12.0,0.,12.0,0.,12.0,0.,12.0
1979-08-03 16:09:16.230 ,4,0,0.,12.0,0.,12.0,0.,12.0,0.,12.0
1979-08-03 16:09:28.230 ,4,0,0.,12.0,0.,12.0,0.,12.0,0.,12.0
1979-08-03 16:09:40.230 ,3,0,0.,12.0,0.,12.0,0.,12.0,0.,12.0
1979-08-03 16:09:52.230 ,3,0,0.,12.0,0.,12.0,0.,12.0,0.,12.0
1979-08-03 16:10:04.230 ,3,0,0.,12.0,0.,12.0,0.,12.0,0.,12.0
1979-08-03 16:10:16.230 ,3,0,0.,12.0,0.,12.0,0.,12.0,0.,12.0
1979-08-03 16:10:28.230 ,2,0,0.,12.0,0.,12.0,0.,12.0,0.,12.0
1979-08-03 16:10:40.230 ,2,0,0.,12.0,0.,12.0,0.,12.0,0.,12.0
1979-08-03 16:10:52.230 ,2,0,0.,12.0,0.,12.0,0.,12.0,0.,12.0
1979-08-03 16:11:04.230 ,2,0,0.,12.0,0.,12.0,0.,12.0,0.,12.0
1979-08-03 16:11:16.230 ,1,0,0.,12.0,0.,12.0,0.,12.0,0.,12.0
1979-08-03 16:11:28.230 ,1,0,0.,12.0,0.,12.0,0.,12.0,0.,12.0
1979-08-03 16:11:40.230 ,1,0,0.,12.0,0.,12.0,0.,12.0,0.,12.0
1979-08-03 16:11:52.230 ,1,0,0.,12.0,0.,12.0,0.,12.0,0.,12.0
1979-08-03 16:12:04.230 ,0,0,0.,12.0,0.,12.0,0.,12.0,0.,12.0
1979-08-03 16:12:16.230 ,0,0,0.,12.0,0.,12.0,0.,12.0,0.,12.0
1979-08-03 16:12:28.230 ,0,0,0.,12.0,0.,12.0,0.,12.0,0.,12.0
1979-08-03 16:12:40.230 ,0,0,0.,12.0,0.,12.0,0.,12.0,0.,12.0
1979-08-03 16:12:52.230 ,0,0,0.,12.0,0.,12.0,0.,12.0,0.,12.0
1979-08-03 16:13:04.230 ,0,0,0.,12.0,0.,12.0,0.,12.0,0.,12.0
1979-08-03 16:13:16.230 ,0,0,0.,12.0,0.,12.0,0.,12.0,0.,12.0
1979-08-03 16:13:28.230 ,0,0,0.,12.0,0.,12.0,0.,12.0,0.,12.0
1979-08-03 16:13:40.230 ,1,0,0.,12.0,0.,12.0,0.,12.0,0.,12.0
1979-08-03 16:13:52.230 ,1,0,0.,12.0,0.,12.0,0.,12.0,0.,12.0
1979-08-03 16:14:04.230 ,1,0,0.,12.0,0.,12.0,0.,12.0,0.,12.0
1979-08-03 16:14:16.230 ,1,0,0.,12.0,0.,12.0,0.,12.0,0.,12.0
1979-08-03 16:14:28.230 ,2,0,0.,12.0,0.,12.0,0.,12.0,0.,12.0
1979-08-03 16:14:40.230 ,2,0,0.,12.0,0.,12.0,0.,12.0,0.,12.0
1979-08-03 16:14:52.230 ,2,0,0.,12.0,0.,12.0,0.,12.0,0.,12.0
1979-08-03 16:15:04.230 ,2,0,0.,12.0,0.,12.0,0.,12.0,0.,12.0
1979-08-03 16:15:16.230 ,3,0,0.,12.0,0.,12.0,0.,12.0,0.,12.0
1979-08-03 16:15:28.230 ,3,0,0.,12.0,0.,12.0,0.,12.0,0.,12.0
1979-08-03 16:15:40.230 ,3,0,0.,12.0,0.,12.0,0.,12.0,0.,12.0
1979-08-03 16:15:52.230 ,3,0,0.,12.0,0.,12.0,0.,12.0,0.,12.0
1979-08-03 16:16:04.230 ,4,0,0.,12.0,0.,12.0,0.,12.0,0.,12.0
1979-08-03 16:16:16.230 ,4,0,0.,12.0,0.,12.0,0.,12.0,0.,12.0
1979-08-03 16:16:28.230 ,4,0,0.,12.0,0.,12.0,0.,12.0,0.,12.0
1979-08-03 16:16:40.230 ,4,0,0.,12.0,0.,12.0,0.,12.0,0.,12.0
1979-08-03 16:16:52.230 ,5,0,0.,12.0,0.,12.0,0.,12.0,0.,12.0
1979-08-03 16:17:04.230 ,5,0,0.,12.0,0.,12.0,0.,12.0,0.,12.0
1979-08-03 16:17:16.230 ,5,0,0.,12.0,0.,12.0,0.,12.0,0.,12.0
1979-08-03 16:17:28.230 ,5,0,0.,12.0,0.,12.0,0.,12.0,0.,12.0
1979-08-03 16:17:40.230 ,6,0,0.,12.0,0.,12.0,0.,12.0,0.,12.0
1979-08-03 16:17:52.230 ,6,0,0.,12.0,0.,12.0,0.,12.0,0.,12.0
1979-08-03 16:18:04.230 ,6,0,0.,12.0,0.,12.0,0.,12.0,0.,12.0
1979-08-03 16:18:16.230 ,6,0,0.,12.0,0.,12.0,0.,12.0,0.,12.0
1979-08-03 16:18:28.230 ,7,0,0.,12.0,0.,12.0,0.,12.0,0.,12.0
1979-08-03 16:18:40.230 ,7,0,0.,12.0,0.,12.0,0.,12.0,0.,12.0
1979-08-03 16:18:52.230 ,7,0,0.,12.0,0.,12.0,0.,12.0,0.,12.0
1979-08-03 16:19:04.230 ,7,0,0.,12.0,0.,12.0,0.,12.0,0.,12.0
1979-08-03 16:19:16.230 ,3,1,0.,12.0,0.,12.0,0.,12.0,0.,12.0
1979-08-03 16:19:28.230 ,3,1,0.,12.0,0.,12.0,0.,12.0,0.,12.0
1979-08-03 16:19:40.230 ,0,1,0.,12.0,0.,12.0,0.,12.0,0.,12.0
1979-08-03 16:19:52.230 ,0,1,0.,12.0,0.,12.0,0.,12.0,0.,12.0
1979-08-03 16:20:04.230 ,4,1,1.,12.0,0.,12.0,0.,12.0,0.,12.0
1979-08-03 16:20:16.230 ,4,1,0.,12.0,0.,12.0,0.,12.0,0.,12.0
1979-08-03 16:20:28.230 ,7,1,0.,12.0,0.,12.0,0.,12.0,0.,12.0
1979-08-03 16:20:40.230 ,7,1,0.,12.0,0.,12.0,0.,12.0,0.,12.0
1979-08-03 16:20:52.230 ,3,1,0.,12.0,0.,12.0,0.,12.0,0.,12.0
1979-08-03 16:21:04.230 ,3,1,0.,12.0,0.,12.0,0.,12.0,0.,12.0
1979-08-03 16:21:16.230 ,0,1,0.,12.0,0.,12.0,0.,12.0,0.,12.0
1979-08-03 16:21:28.230 ,0,1,0.,12.0,0.,12.0,0.,12.0,0.,12.0
1979-08-03 16:21:40.230 ,4,1,0.,12.0,0.,12.0,0.,12.0,0.,12.0
1979-08-03 16:21:52.230 ,4,1,0.,12.0,0.,12.0,0.,12.0,0.,12.0
1979-08-03 16:22:04.230 ,7,1,0.,12.0,0.,12.0,0.,12.0,0.,12.0
1979-08-03 16:22:16.230 ,7,1,0.,12.0,0.,12.0,0.,12.0,0.,12.0
1979-08-03 16:22:28.230 ,3,1,0.,12.0,0.,12.0,0.,12.0,0.,12.0
1979-08-03 16:22:40.230 ,3,1,0.,12.0,0.,12.0,0.,12.0,0.,12.0
1979-08-03 16:22:52.230 ,0,1,0.,12.0,0.,12.0,0.,12.0,0.,12.0
1979-08-03 16:23:04.230 ,0,1,0.,12.0,0.,12.0,0.,12.0,0.,12.0
1979-08-03 16:23:16.230 ,4,1,0.,12.0,0.,12.0,0.,12.0,0.,12.0
1979-08-03 16:23:28.230 ,4,1,0.,12.0,0.,12.0,0.,12.0,0.,12.0
1979-08-03 16:23:40.230 ,7,1,0.,12.0,0.,12.0,0.,12.0,0.,12.0
1979-08-03 16:23:52.230 ,7,1,0.,12.0,0.,12.0,0.,12.0,0.,12.0
1979-08-03 16:24:04.230 ,3,1,0.,12.0,0.,12.0,0.,12.0,0.,12.0
1979-08-03 16:24:16.230 ,3,1,0.,12.0,0.,12.0,0.,12.0,0.,12.0
1979-08-03 16:24:28.230 ,0,1,0.,12.0,0.,12.0,0.,12.0,0.,12.0
1979-08-03 16:24:40.230 ,0,1,0.,12.0,0.,12.0,0.,12.0,0.,12.0
1979-08-03 16:24:52.230 ,4,1,0.,12.0,0.,12.0,0.,12.0,0.,12.0
1979-08-03 16:25:04.230 ,4,1,0.,12.0,0.,12.0,0.,12.0,0.,12.0
1979-08-03 16:25:16.230 ,7,1,0.,12.0,0.,12.0,0.,12.0,0.,12.0
1979-08-03 16:25:28.230 ,7,1,0.,12.0,0.,12.0,0.,12.0,0.,12.0
1979-08-03 16:25:40.230 ,3,1,0.,12.0,0.,12.0,0.,12.0,0.,12.0
1979-08-03 16:25:52.230 ,3,1,0.,12.0,0.,12.0,0.,12.0,0.,12.0
1979-08-03 16:26:04.230 ,0,1,0.,12.0,0.,12.0,0.,12.0,0.,12.0
1979-08-03 16:26:16.230 ,0,1,0.,12.0,0.,12.0,0.,12.0,0.,12.0
1979-08-03 16:26:28.230 ,4,1,0.,12.0,0.,12.0,0.,12.0,0.,12.0
1979-08-03 16:26:40.230 ,4,1,0.,12.0,0.,12.0,0.,12.0,0.,12.0
1979-08-03 16:26:52.230 ,7,1,0.,12.0,0.,12.0,0.,12.0,0.,12.0
1979-08-03 16:27:04.230 ,7,1,0.,12.0,0.,12.0,0.,12.0,0.,12.0
1979-08-03 16:27:16.230 ,3,1,0.,12.0,0.,12.0,0.,12.0,0.,12.0
1979-08-03 16:27:28.230 ,3,1,0.,12.0,0.,12.0,0.,12.0,0.,12.0
1979-08-03 16:27:40.230 ,0,1,0.,12.0,0.,12.0,0.,12.0,0.,12.0
1979-08-03 16:27:52.230 ,0,1,0.,12.0,0.,12.0,0.,12.0,0.,12.0
1979-08-03 16:28:04.230 ,4,1,0.,12.0,0.,12.0,0.,12.0,0.,12.0
1979-08-03 16:28:16.230 ,4,1,0.,12.0,0.,12.0,0.,12.0,0.,12.0
1979-08-03 16:28:28.230 ,7,1,0.,12.0,0.,12.0,0.,12.0,0.,12.0
1979-08-03 16:28:40.230 ,7,1,0.,12.0,0.,12.0,0.,12.0,0.,12.0
1979-08-03 16:28:52.230 ,3,1,0.,12.0,0.,12.0,0.,12.0,0.,12.0
1979-08-03 16:29:04.230 ,3,1,0.,12.0,0.,12.0,0.,12.0,0.,12.0
1979-08-03 16:29:16.230 ,0,1,0.,12.0,0.,12.0,0.,12.0,0.,12.0
1979-08-03 16:29:28.230 ,0,1,0.,12.0,0.,12.0,0.,12.0,0.,12.0
1979-08-03 16:29:40.230 ,0,0,0.,12.0,0.,12.0,0.,12.0,0.,12.0
1979-08-03 16:29:52.230 ,0,0,0.,12.0,0.,12.0,0.,12.0,0.,12.0
1979-08-03 16:30:04.230 ,0,0,0.,12.0,0.,12.0,0.,12.0,0.,12.0
1979-08-03 16:30:16.230 ,0,0,0.,12.0,0.,12.0,0.,12.0,0.,12.0
1979-08-03 16:30:28.230 ,5,0,0.,12.0,0.,12.0,0.,12.0,0.,12.0
1979-08-03 16:30:40.230 ,5,0,0.,12.0,0.,12.0,0.,12.0,0.,12.0
1979-08-03 16:30:52.230 ,5,0,0.,12.0,0.,12.0,0.,12.0,0.,12.0
1979-08-03 16:31:04.230 ,5,0,0.,12.0,0.,12.0,0.,12.0,0.,12.0